Location: Newark
(29.4733°N, 82.6067°W)
Time: 11:12:40
(UTC+00:00)

Tiangong - Visible Passes

Search period start: 21 September 2021 00:00
Search period end: 01 October 2021 00:00
Orbit: 380 x 385 km, 41.5° (Epoch: 20 September)

Date Brightness Start Highest point End Pass type
(mag) Time Alt. Az. Time Alt. Az. Time Alt. Az.
21 Sep 4.2 10:18:26 10° SE 10:18:51 10° SE 10:19:15 10° SE visible
22 Sep 2.0 10:52:06 10° SW 10:55:08 47° SE 10:58:11 10° ENE visible
23 Sep 3.2 09:53:58 18° S 09:55:03 21° SE 09:57:32 10° E visible
24 Sep 1.0 10:29:22 19° WSW 10:31:29 77° NNW 10:34:39 10° NE visible
25 Sep 2.9 09:32:27 31° E 09:32:27 31° E 09:34:23 10° ENE visible
26 Sep 1.8 10:07:38 36° NW 10:07:57 37° NNW 10:10:56 10° NE visible
27 Sep 4.4 09:10:32 13° NE 09:10:32 13° NE 09:10:54 10° NE visible
27 Sep 3.3 10:42:54 10° NW 10:44:54 15° NNW 10:46:54 10° NNE visible
28 Sep 3.3 09:45:34 19° N 09:45:34 19° N 09:47:07 10° NNE visible
29 Sep 3.6 10:20:34 10° NNW 10:21:39 12° N 10:22:53 10° NNE visible
